Back to catalog

THORAD AGENA D DEB

AliveSSO
NORAD 4948·DEBRIS·🇺🇸 United States

Launched Apr 8, 1970 from Vandenberg Space Force Base

Loading…

Next Passes

TLE

Source: Space-Track
1  4948U 70025GJ  26224.01642796  .00000583  00000-0  82422-3 0  9997
2  4948  99.3995  68.5922 0207226   1.1514 156.2192 13.52572462745957

Track THORAD AGENA D DEB in real time with AllMySat

Download on the App Store